• Join FlightAware (Why Join?)
  • Login
  • US Flag GB Flag 
22:41 EST


 

Airport Tracker/Info


-or-


 

Live Flight TrackerFlight Track Log ✈ SKW6238 ✈ 01-Feb-2014 ✈ KACV - KSFO

Flight Track Log - Related Links

Times and Time Zones

All times are in EST time to prevent confusion due to time zone crossing. See the SKW6238 flight status page for this flight to view local times or setup timezone preferences in your user account.

Time Position Orientation Groundspeed Altitude Reporting Facility
EST Latitude Longitude Course Direction KTS MPH feet Rate Location/Type
16:15 40.9717 -124.1658 238° Southwest 158 182 3,400  Level Oakland Center
16:16 40.9231 -124.1672 181° South 170 196 5,200 1,620 Climbing Seattle Center
16:17 40.6460 -123.9290 158° South  Level Estimated
16:17 40.8708 -124.1386 157° South 189 217 6,700  Level Seattle Center
16:18 40.5796 -123.8933 158° South  Level Estimated
16:18 40.8156 -124.1117 160° South 204 235 8,500  Level Seattle Center
16:19 40.5132 -123.8577 158° South  Level Estimated
16:19 40.7575 -124.0869 162° South 212 244 10,300  Level Seattle Center
16:20 40.6972 -124.0586 160° South 221 254 11,800 1,440 Climbing Seattle Center
16:21 40.6300 -124.0292 162° South 236 272 13,300 1,560 Climbing Seattle Center
16:22 40.5625 -123.9975 160° South 251 289 15,000 1,620 Climbing Seattle Center
16:23 40.4947 -123.9658 160° South 256 295 16,600 1,440 Climbing Seattle Center
16:24 40.4253 -123.9317 159° South 263 303 18,000 1,500 Climbing Seattle Center
16:25 40.3442 -123.8942 161° South 258 297 19,700 1,320 Climbing Seattle Center
16:26 40.2747 -123.8603 160° South 259 298 20,800 840 Climbing Oakland Center
16:27 40.2028 -123.8283 161° South 272 313 21,600 840 Climbing Oakland Center
16:28 40.1297 -123.7942 160° South 280 322 22,600 900 Climbing Oakland Center
16:29 40.0572 -123.7617 161° South 277 319 23,500 840 Climbing Oakland Center
16:30 39.9856 -123.7275 160° South 274 315 24,400 720 Climbing Oakland Center
16:31 39.9131 -123.6933 160° South 279 321 25,000 240 Climbing Oakland Center
16:32 39.8342 -123.6572 161° South 298 343 25,000  Level Oakland Center
16:33 39.7358 -123.6117 160° South 313 360 25,000  Level Oakland Center
16:34 39.6517 -123.5739 161° South 318 366 25,000  Level Oakland Center
16:35 39.5689 -123.5342 160° South 317 365 25,000  Level Oakland Center
16:36 39.4858 -123.4958 160° South 318 366 25,000  Level Oakland Center
16:37 39.4081 -123.4617 161° South 319 367 25,000  Level Oakland Center
16:38 39.3233 -123.4239 161° South 322 371 25,000  Level Oakland Center
16:39 39.2208 -123.3764 160° South 326 375 25,000  Level Oakland Center
16:40 39.1347 -123.3375 161° South 328 377 25,000 -300 Level Oakland Center
16:41 39.0469 -123.2964 160° South 334 384 24,400 -540 Descending Oakland Center
16:42 38.9514 -123.2542 161° South 358 412 24,000 -240 Descending Oakland Center
16:43 38.8597 -123.2125 161° South 353 406 24,000  Level Oakland Center
16:44 38.7678 -123.1714 161° South 350 403 24,000  Level Oakland Center
16:45 38.6764 -123.1303 161° South 349 402 24,000 -840 Level Oakland Center
16:46 38.5856 -123.0931 162° South 347 399 22,300 -2,100 Descending Oakland Center
16:47 38.5019 -123.0536 160° South 326 375 19,800 -3,300 Descending Oakland Center
16:48 38.3994 -123.0072 160° South 326 375 15,600 -3,780 Descending Oakland Center
16:49 38.3144 -122.9706 161° South 325 374 12,100 -3,180 Descending Oakland Center
16:50 38.2333 -122.9342 161° South 315 362 9,100 -2,400 Descending Oakland Center
16:51 38.1611 -122.9033 161° South 289 333 7,200 -1,080 Descending Oakland Center
16:52 38.0944 -122.8736 161° South 265 305 7,000 -120 Descending Oakland Center
16:53 38.0297 -122.8456 161° South 256 295 7,000  Level Oakland Center
16:54 37.9653 -122.8156 160° South 251 289 7,000  Level Oakland Center
16:55 37.8886 -122.7831 162° South 247 284 7,000  Level Oakland Center
16:56 37.8244 -122.7564 162° South 246 283 7,000 -360 Level Oakland Center
16:57 37.7597 -122.7281 161° South 248 285 6,300 -900 Descending Oakland Center
16:58 37.6903 -122.7000 162° South 258 297 5,200 -1,080 Descending Oakland Center
16:59 37.6314 -122.6542 148° Southeast 261 300 4,100 -600 Descending Oakland Center
17:00 37.6050 -122.5756 113° Southeast 251 289 4,000 -60 Descending Oakland Center
17:02 37.5803 -122.4989 112° Southeast 242 278 4,000  Level Oakland Center
17:03 37.5522 -122.4094 112° Southeast 235 270 4,000  Level Oakland Center
17:04 37.5264 -122.3378 114° Southeast 231 266 4,000  Level Oakland Center
17:05 37.4972 -122.2800 122° Southeast 212 244 4,000  Level Oakland Center
17:06 37.4672 -122.2214 123° Southeast 204 235 4,000  Level Oakland Center
17:07 37.4581 -122.1594 101° East 211 243 4,000  Level Oakland Center
17:08 37.5064 -122.1669 353° North 203 234 4,000 -300 Level Oakland Center
17:09 37.5475 -122.2044 324° Northwest 191 220 3,500 -840 Descending Oakland Center
17:10 37.5689 -122.2578 297° West 176 203 2,400 -1,140 Descending Oakland Center
17:11 37.5853 -122.2975 298° West 153 176 1,200 -900 Descending Oakland Center
17:12 37.6014 -122.3358 298° West 135 155 600 -480 Descending Oakland Center
17:13 37.6211 -122.3822 298° West 132 152 300 -300 Descending Oakland Center